Simultaneous Nadir Overpasses (SNOs) Predictions

Prediction of SNOs between NOAA-19 and NPP Satellite Orbit:

Table of predicted SNOs for the next 14.0 days since TLE Epoch: 4/30/2022
Index Date (NOAA-19) Time (NOAA-19) Lat,Lon (NOAA-19) SZA (NOAA-19 ) Date (NPP) Time (NPP) Lat,Lon (NPP) SZA (NPP ) Distance(km) Time Diff (sec)
1 04/30/2022 04:52:01 76.73, 84.99 62.88 04/30/2022 04:53:09 76.77, 87.49 62.68 64.02 68
2 04/30/2022 05:42:58 -77.04,-106.41 116.97 04/30/2022 05:44:00 -77.07,-106.41 116.96 3.58 62
3 04/30/2022 06:33:53 77.06, 60.96 63.04 04/30/2022 06:34:45 77.04, 61.03 63.00 2.74 52
4 04/30/2022 07:24:56 -77.08,-131.72 116.96 04/30/2022 07:25:29 -77.08,-131.81 116.97 2.19 33
5 04/30/2022 08:15:52 77.06, 35.47 63.02 04/30/2022 08:16:15 77.09, 35.44 63.04 3.39 23
6 04/30/2022 09:06:56 -77.08,-157.22 116.99 04/30/2022 09:06:59 -77.08,-157.21 116.98 0.67 3
7 04/30/2022 09:57:51 77.10, 10.16 63.02 04/30/2022 09:57:45 77.10, 10.04 63.03 2.83 6
8 04/30/2022 10:48:56 -77.08, 177.28 117.01 04/30/2022 10:48:29 -77.09, 177.39 117.00 3.15 27
9 04/30/2022 11:39:51 77.10, -15.34 63.00 04/30/2022 11:39:15 77.10, -15.36 63.01 0.45 36
10 04/30/2022 12:30:55 -77.12, 151.97 117.01 04/30/2022 12:29:59 -77.10, 151.99 117.01 2.47 56
11 04/30/2022 13:21:51 77.10, -40.84 62.98 04/30/2022 13:20:45 77.11, -40.76 63.00 2.32 66
12 04/30/2022 14:12:44 -77.56, 128.63 116.77 04/30/2022 14:11:40 -77.57, 124.51 116.42 98.53 64



Historial Predications of SNOs between NOAA-19 and NPP
